Regional Weather Roundup
Issued by NWS

Home | Current Version | Previous Version | Graphics & Text | Print | Product List | Glossary On
Versions: 1 2 3 4 5 6 7 8 9 10 11 12 13 14 15 16 17 18 19 20 21 22 23 24 25 26 27 28 29 30 31 32 33 34 35 36 37 38 39 40 41 42 43 44 45 46 47 48 49 50
000
ASUS43 KLOT 202106
RWRIL

ILLINOIS REGIONAL WEATHER ROUNDUP
NATIONAL WEATHER SERVICE CHICAGO/ROMEOVILLE IL
400 PM CDT WED AUG 20 2014

NOTE: "FAIR" INDICATES FEW OR NO CLOUDS BELOW 12,000 FEET WITH NO
SIGNIFICANT WEATHER AND/OR OBSTRUCTIONS TO VISIBILITY.

* THESE STATIONS ARE NOT UNDER NWS QUALITY CONTROL. THEY ALSO MAY NOT
  REPORT WEATHER SUCH AS PRECIPITATION OR FOG.

ILZ001-002-007-009-015-016-024-202200-
NORTHWEST ILLINOIS

CITY           SKY/WX    TMP DP  RH WIND       PRES   REMARKS
MOLINE         CLOUDY    76  68  76 SW10G21   29.91R
STERLING*      PTSUNNY   82  70  65 SW6       29.89R HX  86
SAVANNA*       PTSUNNY   85  65  51 S12       29.87S HX  86
$$

ILZ003-004-008-010-011-017-018-202200-
NORTH CENTRAL ILLINOIS

CITY           SKY/WX    TMP DP  RH WIND       PRES   REMARKS
ROCKFORD       CLOUDY    83  64  52 CALM      29.87F HX  84
FREEPORT*      PTSUNNY   83  67  59 SW8       29.90R HX  85
ROCHELLE*      PTSUNNY   82  65  56 S3        29.89R HX  84
DE KALB*       PTSUNNY   81  66  60 S6        29.88F HX  83
PERU*          PTSUNNY   81  68  64 S8        29.87F HX  84
$$

ILZ005-006-012>014-019>023-202200-
NORTHEAST ILLINOIS

CITY           SKY/WX    TMP DP  RH WIND       PRES   REMARKS
CHICAGO-OHARE  PTSUNNY   85  63  47 W13       29.86F HX  86
CHICAGO-MIDWAY PTSUNNY   87  65  47 SW10      29.86F HX  89
AURORA         MOSUNNY   85  65  51 S7        29.87F HX  86
LANSING*       MOSUNNY   84  62  47 CALM      29.87F HX  85
JOLIET*        PTSUNNY   83  65  53 SW6       29.89R HX  85
WAUKEGAN       MOSUNNY   84  65  52 SW9       29.85F HX  86
DUPAGE AIRPORT MOSUNNY   85  65  51 SW9       29.87F HX  86
KANKAKEE*      PTSUNNY   82  71  68 SW10      29.91R HX  87
WHEELING       MOSUNNY   86  64  47 SW10      29.87F HX  87
MORRIS*        MOSUNNY   84  69  59 SW6       29.88F HX  88
ROMEOVILLE*    MOSUNNY   83  64  53 SW6       29.88S HX  84
NORTHERLY ISL    N/A     85  61  44 SW7         N/A  HX  85
$$

LMZ740>746-202200-
SOUTHERN LAKE MICHIGAN

STATION/POSITION SKY/WX   TEMP    WIND        PRES    VSBY  WAVE
                          AIR SEA DIR/SP/G                  HT/PER
                          (F)     (DEG/KT/KT) (MB)    (MI)  (FT/S)
SOUTHERN BUOY              70 69  100/  8/  8 1011.7F         0
WAUKEGAN HARBOR            83     240/ 10/ 13   N/A
HARRISON CRIB              83     260/ 10/ 13   N/A
BURNHAM HARBOR             84     210/  7/ 12   N/A
CALUMET HARBOR             84     210/  5/  9 1010.1F
BURNS HARBOR               82     260/ 10/ 18   N/A
MICHIGAN CITY              78     220/  6/  9   N/A
MICHIGAN CITY 6N           77 74  260/  4/  6   N/A           1
ST. JOSEPH                 76 71  150/  2/  4   N/A           1
$$

ILZ025>027-034>036-040-047-049-050-058-095>099-202200-
WEST-CENTRAL ILLINOIS

CITY           SKY/WX    TMP DP  RH WIND       PRES   REMARKS
QUINCY         CLOUDY    83  73  72 SE9       29.93F HX  89
GALESBURG*     CLOUDY    76  69  77 S12       29.93R
MACOMB*        CLOUDY    78  72  83 S10G17    29.94S HX  80
JACKSONVILLE*  PTSUNNY   82  74  76 S10       29.95S HX  87
PITTSFIELD*    CLOUDY    84  75  74 E5        29.95S HX  93
$$

ILZ028>032-037-038-041>044-048-051>054-059>061-202200-
CENTRAL ILLINOIS

CITY           SKY/WX    TMP DP  RH WIND       PRES   REMARKS
PONTIAC        MOSUNNY   81  72  74 SW7       29.91R HX  84
DECATUR        CLOUDY    78  69  73 S12       29.96F HX  80
PEORIA         CLOUDY    81  68  64 SW12      29.92S HX  84
LACON*         CLOUDY    75  69  80 S9G16     29.88F
LINCOLN*       CLOUDY    82  69  64 S6        29.91S HX  85
SPRINGFIELD    PTSUNNY   83  71  67 S7        29.94F HX  87
TAYLORVILLE    CLOUDY    77  72  83 S7        29.95F
$$

ILZ033-039-045-046-055>057-062-063-202200-
EAST-CENTRAL ILLINOIS

CITY           SKY/WX    TMP DP  RH WIND       PRES   REMARKS
CHAMPAIGN      CLOUDY    76  69  79 SW14      29.94S
DANVILLE*      RAIN      77  69  76 SW12      29.90F
RANTOUL*       CLOUDY    77  67  72 SW9       29.94S
MATTOON        CLOUDY    75  69  81 S6        29.95F
PARIS*         CLOUDY    75  72  89 SW5       29.95R
$$

ILZ079-100>102-202200-
SOUTHWEST ILLINOIS

CITY           SKY/WX    TMP DP  RH WIND       PRES   REMARKS
ALTON          PTSUNNY   82  75  78 E14       29.97F HX  89
BELLEVILLE     SUNNY     83  73  72 E12       29.96S HX  88
CAHOKIA*       CLOUDY    84  72  67 SE12      29.95F HX  89
SPARTA*        CLOUDY    81  75  80 E10       29.98S HX  87
$$

ILZ064>066-069>071-074>076-080>082-084>086-088>090-092>094-202200-
SOUTH-CENTRAL ILLINOIS

CITY           SKY/WX    TMP DP  RH WIND       PRES   REMARKS
CARBONDALE     CLOUDY    83  75  77 NE9       29.96S HX  90
CAIRO*         MOSUNNY   94  77  57 SW6       29.95S HX 109
MARION         PTSUNNY   86  75  70 NE8       29.97F HX  95
MT. VERNON     CLOUDY    81  66  61 E3        29.98F HX  83
CENTRALIA*     CLOUDY    88  67  49 SE3       29.98S HX  90
SALEM*         CLOUDY    80  72  75 E3        29.98F HX  84
$$

ILZ067-068-072-073-078-083-087-091-202200-
SOUTHEAST ILLINOIS

CITY           SKY/WX    TMP DP  RH WIND       PRES   REMARKS
LAWRENCEVILLE  CLOUDY    77  71  82 SW6       29.94F
FLORA*         CLOUDY    77  69  77 CALM      29.97F
FAIRFIELD*     CLOUDY    81  72  74 CALM      29.96F HX  84
HARRISBURG*    PTSUNNY   83  71  66 NE6       29.98F HX  88
ROBINSON*      CLOUDY    77  73  87 W3        29.95F
$$

ABBREVIATIONS USED IN REMARKS
   TC - TEMPERATURE IN CELSIUS
  WCI - WIND CHILL INDEX
   HX - HEAT INDEX
  VSB - VISIBILITY
$$




USA.gov is the U.S. government's official web portal to all federal, state and local government web resources and services.